Weather in Kuteyevka

Russia / Penza Oblast     53°05′40″N   43°37′44″E
temp.,
°C
wind,
m/s
gust,
m/s
humid.,
%
clouds,
%
prec.,
mm/h
press.,
hPa
HPBL,
m
29 july, thu
thu2900:00+18ne3584100 0.6 101477
03:00+18e3680100 0.6 1012108
06:00+19ese357567 0.2 101193
09:00+22ssw686514 0.2 1010713
12:00+27sw674989 0.0 10091942
15:00+27sw5751100 0.0 10071297
18:00+24w22626 0.0 100734
21:00+21wsw33685 0.0 100728
30 july, fri
fri3000:00+19wsw337336 0.0 100843
03:00+18w337794 0.0 100835
06:00+20wsw25755 0.0 1008124
09:00+26wsw355434 0.0 1008614
12:00+29wsw46408 0.0 10082177
15:00+30sw47398 0.0 10062209
18:00+23nnw81067100 0.2 1006465
21:00+19ese239393 1.8 100669
31 july, sat
sat3100:00+18sse2394100 1.6 100683
03:00+18wsw4996100 2.3 1006200
06:00+19wnw2691100 0.0 1007183
09:00+24w3469100 0.0 1007687
12:00+26w575519 0.8 10081586
15:00+28wnw673920 0.8 10082262
18:00+26nw3649100 0.0 1009296
21:00+21s115323 0.0 101011
1 august, sun
sun100:00+20sw335399 0.0 101130
03:00+19sw22582 0.0 101111
06:00+21sw116269 0.0 101312
09:00+26sw224661 0.0 1013507
12:00+29w46385 0.0 10121925
15:00+30w45305 0.0 10122358
18:00+29nnw12420 0.0 101252
21:00+23se33520 0.0 101330
2 august, mon
mon200:00+22s225139 0.0 101218
03:00+20s365430 0.0 101288
06:00+20ssw3766100 0.1 1013145
09:00+26s465697 0.8 1012375
12:00+32ssw46375 0.0 10111601
15:00+33ssw573252 0.0 10092188
18:00+31wsw124176 0.0 100834
21:00+25sw114686 0.0 100811